FW7170 Weather Reports


time (UTC)temp
C
wind
direction
speed
KPH
gust
KPH
rain 1hr
cm
rain 24hr
cm
rain mn
cm
humidity
%
barometer
mb
20260503203748 20 95 4.8 4.8 0.00 0.00 0.00 60 1017.6
20260503203245 20 96 4.8 8.0 0.00 0.00 0.00 62 1017.4
20260503202742 20 78 6.4 9.7 0.00 0.00 0.00 60 1017.8
20260503202240 20 183 3.2 4.8 0.00 0.00 0.00 60 1017.5
20260503201738 20 119 1.6 1.6 0.00 0.00 0.00 63 1017.5
20260503201235 21 119 4.8 4.8 0.00 0.00 0.00 57 1017.6
20260503200731 21 138 8.0 11.3 0.00 0.00 0.00 55 1017.6
20260503200222 21 104 4.8 4.8 0.00 0.00 0.00 58 1017.7
20260503195719 20 101 3.2 3.2 0.00 0.00 0.00 59 1017.8
20260503195216 20 120 1.6 1.6 0.00 0.00 0.00 59 1017.8
20260503194713 21 116 1.6 1.6 0.00 0.00 0.00 57 1017.9
20260503194209 22 141 3.2 3.2 0.00 0.00 0.00 49 1018.0
20260503193706 22 107 1.6 1.6 0.00 0.00 0.00 50 1017.9
20260503193202 21 59 3.2 4.8 0.00 0.00 0.00 49 1018.3
20260503192657 21 166 3.2 3.2 0.00 0.00 0.00 51 1018.1
20260503192153 21 289 8.0 9.7 0.00 0.00 0.00 51 1018.1
20260503191649 20 110 1.6 1.6 0.00 0.00 0.00 53 1018.5
20260503191147 21 79 4.8 4.8 0.00 0.00 0.00 52 1018.4
20260503190643 21 129 3.2 3.2 0.00 0.00 0.00 51 1018.7
20260503190140 20 356 6.4 8.0 0.00 0.00 0.00 53 1018.7
20260503185637 20 119 0.0 1.6 0.00 0.00 0.00 52 1018.7
20260503185132 20 124 1.6 1.6 0.00 0.00 0.00 53 1018.9
20260503184628 20 147 3.2 4.8 0.00 0.00 0.00 50 1018.8
20260503184124 21 113 4.8 4.8 0.00 0.00 0.00 50 1019.2
20260503183621 20 352 3.2 4.8 0.00 0.00 0.00 53 1019.0
20260503183118 21 112 6.4 9.7 0.00 0.00 0.00 50 1019.1
20260503182616 21 106 4.8 4.8 0.00 0.00 0.00 47 1019.2
20260503182114 21 128 3.2 3.2 0.00 0.00 0.00 50 1019.5
20260503181611 20 276 8.0 9.7 0.00 0.00 0.00 53 1018.9
20260503181108 21 84 3.2 3.2 0.00 0.00 0.00 48 1019.3
20260503180605 21 272 9.7 11.3 0.00 0.00 0.00 54 1019.2
20260503180103 21 92 1.6 3.2 0.00 0.00 0.00 48 1019.3
20260503175559 22 309 3.2 4.8 0.00 0.00 0.00 50 1019.4
20260503175056 21 111 0.0 1.6 0.00 0.00 0.00 57 1019.4
20260503174553 20 300 17.7 22.5 0.00 0.00 0.00 52 1019.5
20260503174050 20 249 3.2 3.2 0.00 0.00 0.00 51 1019.4
20260503173545 21 151 3.2 3.2 0.00 0.00 0.00 51 1019.3
20260503173041 20 77 3.2 3.2 0.00 0.00 0.00 51 1019.3
20260503172539 19 120 1.6 1.6 0.00 0.00 0.00 56 1019.6
20260503172036 20 105 0.0 1.6 0.00 0.00 0.00 52 1019.8
20260503171532 20 100 1.6 1.6 0.00 0.00 0.00 49 1019.8
20260503171030 20 78 3.2 3.2 0.00 0.00 0.00 54 1019.8
20260503170526 19 119 0.0 1.6 0.00 0.00 0.00 54 1019.8
20260503150912 18 89 1.6 3.2 0.00 0.00 0.00 55 1020.2
20260503150409 18 96 1.6 1.6 0.00 0.00 0.00 60 1020.4
20260503131256 16 109 0.0 1.6 0.00 0.00 0.00 89 1019.7
20260503130754 15 108 0.0 1.6 0.00 0.00 0.00 92 1019.8
20260503130251 15 106 1.6 1.6 0.00 0.00 0.00 91 1019.7
20260503120217 11 102 0.0 0.0 0.00 0.00 0.00 99 1019.3
20260503110644 8 97 0.0 0.0 0.00 0.00 0.00 99 1018.7
20260503110142 8 97 0.0 0.0 0.00 0.00 0.00 99 1018.6
20260503100109 8 97 0.0 0.0 0.00 0.00 0.00 99 1017.9
20260503081452 9 98 0.0 0.0 0.00 0.00 0.00 99 1017.2
20260503080949 9 98 0.0 0.0 0.00 0.00 0.00 99 1016.9
20260503080445 9 98 0.0 0.0 0.00 0.00 0.00 99 1017.0
20260503072921 10 98 0.0 0.0 0.00 0.00 0.00 99 1016.6
20260503072419 10 98 0.0 0.0 0.00 0.00 0.00 99 1016.5
20260503071916 10 98 0.0 0.0 0.00 0.00 0.00 99 1016.6
20260503071413 10 98 0.0 0.0 0.00 0.00 0.00 99 1016.5
20260503070909 10 98 0.0 0.0 0.00 0.00 0.00 99 1016.5
20260503070406 10 98 0.0 0.0 0.00 0.00 0.00 99 1016.3
20260503060332 10 98 0.0 0.0 0.00 0.00 0.00 99 1016.3
20260503054820 10 98 0.0 0.0 0.00 0.00 0.00 99 1016.4
20260503054316 10 98 0.0 0.0 0.00 0.00 0.00 99 1016.3
20260503053814 10 98 0.0 0.0 0.00 0.00 0.00 99 1016.3
20260503053312 10 98 0.0 0.0 0.00 0.00 0.00 99 1016.3
20260503052808 10 98 0.0 0.0 0.00 0.00 0.00 99 1016.2
20260503052306 10 99 0.0 0.0 0.00 0.00 0.00 99 1016.2
20260503051801 11 98 0.0 0.0 0.00 0.00 0.00 99 1016.2
20260503051258 11 98 0.0 0.0 0.00 0.00 0.00 99 1016.2
20260503050754 11 98 0.0 0.0 0.00 0.00 0.00 99 1016.1
20260503050250 11 98 0.0 0.0 0.00 0.00 0.00 99 1016.0
20260503045748 11 99 0.0 0.0 0.00 0.00 0.00 99 1016.0
20260503045246 11 99 0.0 0.0 0.00 0.00 0.00 99 1016.1
20260503044742 11 99 0.0 0.0 0.00 0.00 0.00 99 1015.9
20260503044239 11 99 0.0 0.0 0.00 0.00 0.00 99 1016.0
20260503043736 11 99 0.0 0.0 0.00 0.00 0.00 99 1015.9
20260503043233 11 100 0.0 0.0 0.00 0.00 0.00 99 1015.7
20260503042729 11 101 0.0 0.0 0.00 0.00 0.00 99 1015.7
20260503042226 11 99 0.0 0.0 0.00 0.00 0.00 99 1015.5
20260503041722 12 99 0.0 0.0 0.00 0.00 0.00 99 1015.5
20260503041220 12 98 0.0 0.0 0.00 0.00 0.00 99 1015.5
20260503040717 12 100 0.0 0.0 0.00 0.00 0.00 99 1015.6
20260503040215 12 89 1.6 1.6 0.00 0.00 0.00 99 1015.9
20260503035711 12 82 1.6 1.6 0.00 2.67 2.67 99 1015.2
20260503035209 12 96 1.6 1.6 0.00 2.67 2.67 99 1015.2
20260503034706 12 331 4.8 8.0 0.00 2.67 2.67 99 1015.2
20260503034203 12 62 3.2 3.2 0.00 2.67 2.67 99 1015.5
20260503033700 12 105 0.0 0.0 0.00 2.67 2.67 99 1015.3
20260503033158 12 106 0.0 0.0 0.00 2.67 2.67 99 1015.2
20260503032656 12 101 0.0 0.0 0.00 2.67 2.67 99 1015.0
20260503032154 12 100 0.0 0.0 0.00 2.67 2.67 99 1015.0
20260503031651 12 101 0.0 0.0 0.00 2.67 2.67 99 1015.0
20260503031149 12 101 0.0 0.0 0.00 2.67 2.67 99 1014.8
20260503030644 12 101 0.0 0.0 0.00 2.67 2.67 99 1014.8
20260503030142 12 100 0.0 0.0 0.00 2.67 2.67 99 1014.7
20260503025638 12 101 0.0 0.0 0.00 2.67 2.67 99 1014.6
20260503025136 12 99 0.0 0.0 0.00 2.67 2.67 99 1014.6
20260503024632 12 100 0.0 0.0 0.00 2.67 2.67 99 1014.5
20260503024130 12 103 0.0 0.0 0.00 2.67 2.67 99 1014.2
20260503023627 12 96 0.0 0.0 0.00 2.67 2.67 99 1014.2
20260503023124 12 99 0.0 1.6 0.00 2.67 2.67 99 1014.3
20260503022619 12 114 0.0 1.6 0.00 2.67 2.67 99 1014.1
20260503022114 12 104 0.0 1.6 0.00 2.67 2.67 99 1014.1
20260503021612 12 102 1.6 1.6 0.00 2.67 2.67 99 1014.2
20260503021108 12 101 0.0 0.0 0.00 2.67 2.67 99 1013.9
20260503020605 12 95 1.6 1.6 0.00 2.67 2.67 99 1014.0
20260503015553 13 102 0.0 1.6 0.00 2.67 2.67 99 1013.8
20260503015051 13 99 0.0 0.0 0.00 2.67 2.67 99 1013.5
20260503014546 13 100 0.0 0.0 0.00 2.67 2.67 99 1013.4
20260503014044 13 103 0.0 0.0 0.00 2.67 2.67 99 1013.4
20260503013541 13 101 0.0 0.0 0.00 2.67 2.67 99 1013.2
20260503013039 13 103 0.0 1.6 0.00 2.67 2.67 99 1013.4
20260503012536 13 105 0.0 0.0 0.00 2.67 2.67 99 1013.5
20260503012032 13 103 0.0 0.0 0.00 2.67 2.67 99 1013.5
20260503011529 13 107 0.0 0.0 0.00 2.67 2.67 99 1013.2
20260503011027 13 66 0.0 1.6 0.00 2.67 2.67 99 1013.3
20260503010523 13 107 1.6 1.6 0.00 2.67 2.67 99 1013.1
20260503010020 13 98 1.6 1.6 0.00 2.67 2.67 99 1013.5
20260503005512 13 103 0.0 0.0 0.00 2.67 2.67 99 1013.3
20260503005009 13 96 0.0 0.0 0.00 2.67 2.67 99 1013.6
20260503004504 13 93 1.6 1.6 0.00 2.67 2.67 99 1013.3
20260503004003 13 77 3.2 3.2 0.00 2.67 2.67 99 1013.1
20260503003459 13 102 0.0 1.6 0.00 2.67 2.67 99 1013.2
20260503002957 13 97 1.6 1.6 0.00 2.67 2.67 99 1012.7
20260503002454 13 100 0.0 0.0 0.00 2.67 2.67 99 1012.8
20260503001949 13 96 0.0 0.0 0.00 2.67 2.67 99 1012.7
20260503001446 13 106 0.0 0.0 0.00 2.67 2.67 99 1012.7
20260503000944 13 102 0.0 0.0 0.00 2.67 2.67 99 1012.5
20260503000441 13 94 3.2 3.2 0.00 2.67 2.67 99 1012.4
20260502235938 13 95 0.0 0.0 0.00 2.67 2.67 99 1012.5
20260502235435 13 100 0.0 0.0 0.00 2.67 2.67 99 1012.3
20260502234932 13 102 0.0 1.6 0.00 2.67 2.67 99 1012.0
20260502234428 13 70 1.6 1.6 0.00 2.67 2.67 99 1012.5
20260502233926 13 113 1.6 1.6 0.00 2.67 2.67 99 1012.5
20260502233421 13 91 1.6 4.8 0.00 2.67 2.67 99 1012.3
20260502232919 13 65 4.8 11.3 0.00 2.67 2.67 99 1012.0
20260502232415 13 107 0.0 1.6 0.00 2.67 2.67 99 1011.8
20260502231912 13 105 0.0 0.0 0.00 2.67 2.67 99 1012.0
20260502231409 13 99 0.0 0.0 0.00 2.67 2.67 99 1011.7
20260502230907 13 72 0.0 1.6 0.00 2.67 2.67 99 1011.9
20260502230405 13 51 3.2 3.2 0.00 2.67 2.67 99 1011.9
20260502225902 13 97 3.2 3.2 0.00 2.67 2.67 99 1011.7
20260502225358 13 69 1.6 1.6 0.00 2.67 2.67 99 1011.6
20260502224855 13 98 1.6 3.2 0.00 2.67 2.67 99 1011.5
20260502224351 13 81 4.8 8.0 0.00 2.67 2.67 99 1011.9
20260502223849 13 113 0.0 1.6 0.00 2.67 2.67 99 1012.0
20260502223347 13 138 1.6 1.6 0.00 2.67 2.67 99 1012.1
20260502222844 13 102 0.0 1.6 0.00 2.67 2.67 99 1011.6
20260502222342 13 100 3.2 3.2 0.00 2.67 2.67 99 1011.9
20260502221837 13 91 1.6 3.2 0.00 2.67 2.67 99 1011.9
20260502221334 13 90 1.6 1.6 0.00 2.67 2.67 99 1011.5
20260502220831 13 96 1.6 1.6 0.00 2.67 2.67 99 1011.7
20260502220327 13 54 1.6 3.2 0.00 2.67 2.67 99 1011.5
20260502215823 13 75 1.6 3.2 0.00 2.67 2.67 99 1011.6
20260502215321 13 25 4.8 4.8 0.00 2.67 2.67 99 1011.6
20260502214818 13 116 3.2 3.2 0.00 2.67 2.67 99 1011.5
20260502214315 13 343 1.6 3.2 0.00 2.67 2.67 99 1011.4
20260502213812 13 106 3.2 3.2 0.00 2.67 2.67 99 1011.4
20260502213309 13 97 0.0 1.6 0.00 2.67 2.67 99 1011.0
20260502212808 14 94 1.6 1.6 0.00 2.67 2.67 99 1010.8
20260502212306 14 86 0.0 1.6 0.00 2.67 2.67 99 1010.5
20260502211802 13 91 1.6 1.6 0.00 2.67 2.67 99 1010.6
20260502211258 13 96 0.0 1.6 0.00 2.67 2.67 99 1010.4
20260502210755 13 105 0.0 0.0 0.00 2.67 2.67 99 1010.6
20260502210253 13 80 1.6 3.2 0.00 2.67 2.67 99 1010.6
20260502205750 13 107 1.6 1.6 0.00 2.67 2.67 99 1010.5
20260502205246 13 118 1.6 3.2 0.00 2.67 2.67 99 1010.7
20260502204743 13 159 0.0 1.6 0.00 2.67 2.67 99 1010.6
20260502204240 13 71 4.8 8.0 0.00 2.67 2.67 99 1010.3